Weather History for Gullfax (Platform), Norway

Change the Weather History Date:

Thursday, February 7, 2013

  Actual Average Record
Temperature  
Mean Temperature 40 °F -  
Max Temperature 42 °F 41 °F 48 °F (2008)
Min Temperature 37 °F 36 °F 30 °F (1999)
Degree Days  
Heating Degree Days 26    
Moisture  
Dew Point 32 °F    
Average Humidity 77    
Maximum Humidity 87    
Minimum Humidity 61    
Precipitation  
Precipitation 0.00 in - - ()
Sea Level Pressure  
Sea Level Pressure 29.84 in    
Wind  
Wind Speed 18 mph ()    
Max Wind Speed 37 mph    
Max Gust Speed -    
Visibility 6.1 miles    
Events Rain , Snow    
Averages and records for this station are not official NWS values.
T = Trace of Precipitation, MM = Missing Value Source: Averaged Metar Reports

Daily Weather History Graph

Daily Weather History Graph

Search for Another Location

Airport:

Trip Planner

Search our weather history database for the weather conditions in past years. The results will help you decide how hot, cold, wet, or windy it might be!

Date:

Astronomy

Feb. 07, 2013 Rise Set
Actual Time 8:55 AM CET 5:17 PM CET
Civil Twilight 8:08 AM CET 6:04 PM CET
Nautical Twilight 7:16 AM CET 6:56 PM CET
Astronomical Twilight 6:27 AM CET 7:46 PM CET
Moon 6:54 AM CET (2/7) 1:53 PM CET (2/7)
Length of Visible Light 9h 56m
Length of Day
8h 21m
Waning Crescent, 11% of the Moon is Illuminated
Feb 7
Waning Crescent
Feb 10
New
Feb 17
First Quarter
Feb 25
Full
Mar 4
Last Quarter

Hourly Weather History & Observations

Time (CET) Temp. Windchill Dew Point Humidity Pressure Visibility Wind Dir Wind Speed Gust Speed Precip Events Conditions
12:50 AM 37.4 °F 25.4 °F 32.0 °F 81% 29.77 in 6.2 mi North 27.6 mph - N/A   Scattered Clouds
1:50 AM 37.4 °F 25.0 °F 32.0 °F 81% 29.77 in 6.2 mi North 29.9 mph - N/A   Mostly Cloudy
2:50 AM 37.4 °F 25.4 °F 33.8 °F 87% 29.77 in 6.2 mi North 27.6 mph - N/A   Light Drizzle
3:50 AM 37.4 °F 26.4 °F 33.8 °F 87% 29.77 in 6.2 mi North 23.0 mph - N/A Rain Light Rain Showers
4:50 AM 37.4 °F 23.8 °F 33.8 °F 87% 29.77 in 6.2 mi North 36.8 mph - N/A Rain Light Rain Showers
5:50 AM 39.2 °F 26.5 °F 35.6 °F 87% 29.77 in 6.2 mi North 35.7 mph - N/A   Mostly Cloudy
6:20 AM 39.2 °F 27.4 °F 33.8 °F 81% 29.77 in 6.2 mi North 29.9 mph - N/A   Scattered Clouds
6:50 AM 39.2 °F 27.8 °F 33.8 °F 81% 29.77 in 6.2 mi North 27.6 mph - N/A   Scattered Clouds
7:20 AM 37.4 °F 25.2 °F 33.8 °F 87% 29.80 in 3.7 mi NNE 28.8 mph - N/A Rain , Snow Light Rain Showers
7:50 AM 37.4 °F 25.9 °F 33.8 °F 87% 29.80 in 6.2 mi North 25.3 mph - N/A Rain , Snow Light Rain Showers
8:20 AM 39.2 °F 29.8 °F 33.8 °F 81% 29.80 in 6.2 mi NNE 18.4 mph - N/A   Scattered Clouds
8:50 AM 39.2 °F 29.6 °F 33.8 °F 81% 29.80 in 6.2 mi NE 19.6 mph - N/A   Mostly Cloudy
9:20 AM 37.4 °F 29.3 °F 33.8 °F 87% 29.80 in 6.2 mi NNE 12.7 mph - N/A   Scattered Clouds
9:50 AM 39.2 °F 31.2 °F 35.6 °F 87% 29.80 in 6.2 mi North 13.8 mph - N/A   Mostly Cloudy
10:20 AM 39.2 °F 30.5 °F 35.6 °F 87% 29.83 in 6.2 mi North 16.1 mph - N/A   Mostly Cloudy
10:50 AM 39.2 °F 31.6 °F 35.6 °F 87% 29.83 in 6.2 mi North 12.7 mph - N/A Rain Light Rain Showers
11:20 AM 37.4 °F 30.3 °F 33.8 °F 87% 29.83 in 6.2 mi NNW 10.4 mph - N/A   Scattered Clouds
11:50 AM 39.2 °F 33.6 °F 35.6 °F 87% 29.83 in 6.2 mi North 8.1 mph - N/A   Mostly Cloudy
12:20 PM 39.2 °F 35.0 °F 35.6 °F 87% 29.83 in 6.2 mi ENE 5.8 mph - N/A   Mostly Cloudy
12:50 PM 41.0 °F 34.7 °F 33.8 °F 76% 29.83 in 6.2 mi ENE 10.4 mph - N/A   Mostly Cloudy
1:20 PM 42.8 °F 36.2 °F 32.0 °F 66% 29.83 in 6.2 mi ENE 12.7 mph - N/A   Scattered Clouds
1:50 PM 42.8 °F 36.2 °F 32.0 °F 66% 29.86 in 6.2 mi ENE 12.7 mph - N/A   Scattered Clouds
2:20 PM 41.0 °F 33.9 °F 30.2 °F 65% 29.86 in 6.2 mi ENE 12.7 mph - N/A   Partly Cloudy
3:20 PM 41.0 °F 34.3 °F 28.4 °F 61% 29.86 in 6.2 mi ENE 11.5 mph - N/A   Scattered Clouds
3:50 PM 39.2 °F 32.0 °F 28.4 °F 65% 29.86 in 6.2 mi ENE 11.5 mph - N/A   Scattered Clouds
4:20 PM 39.2 °F 32.0 °F 28.4 °F 65% 29.86 in 6.2 mi East 11.5 mph - N/A   Scattered Clouds
4:50 PM 39.2 °F 32.5 °F 28.4 °F 65% 29.89 in 6.2 mi ENE 10.4 mph - N/A   Scattered Clouds
5:20 PM 37.4 °F 30.3 °F 28.4 °F 70% 29.89 in 6.2 mi East 10.4 mph - N/A   Mostly Cloudy
5:50 PM 37.4 °F 30.3 °F 28.4 °F 70% 29.89 in 6.2 mi ENE 10.4 mph - N/A   Mostly Cloudy
6:50 PM 39.2 °F 33.6 °F 28.4 °F 65% 29.92 in 6.2 mi NE 8.1 mph - N/A   Mostly Cloudy
7:50 PM 39.2 °F 33.6 °F 28.4 °F 65% 29.92 in 6.2 mi ENE 8.1 mph - N/A   Mostly Cloudy
9:20 PM 37.4 °F 30.3 °F 26.6 °F 65% 29.92 in 6.2 mi East 10.4 mph - N/A   Mostly Cloudy
9:50 PM 37.4 °F 32.1 °F 28.4 °F 70% 29.92 in 6.2 mi East 6.9 mph - N/A   Mostly Cloudy
10:50 PM 37.4 °F 32.1 °F 28.4 °F 70% 29.95 in 6.2 mi ENE 6.9 mph - N/A   Mostly Cloudy
11:50 PM 37.4 °F 34.9 °F 28.4 °F 70% 29.95 in 6.2 mi ENE 3.5 mph - N/A   Mostly Cloudy